| time (UTC) | temp F | wind direction | speed knots | gust knots | rain 1hr in | rain 24hr in | rain mn in | humidity % | barometer mb |
| 20260505011119 | 54 | 67 | 0.9 | 3.5 | 0.00 | 0.00 | 0.00 | 87 | 1010.4 |
| 20260505005119 | 54 | 45 | 0.9 | 2.6 | 0.00 | 0.00 | 0.00 | 87 | 1010.6 |
| 20260505003120 | 54 | 45 | 0.9 | 2.6 | 0.00 | 0.00 | 0.00 | 87 | 1010.6 |
| 20260505001119 | 54 | 45 | 1.7 | 4.3 | 0.00 | 0.00 | 0.00 | 86 | 1010.6 |
| 20260504235120 | 54 | 67 | 1.7 | 3.5 | 0.00 | 0.00 | 0.00 | 86 | 1010.7 |
| 20260504233120 | 54 | 45 | 1.7 | 4.3 | 0.00 | 0.00 | 0.00 | 86 | 1010.6 |
| 20260504231121 | 54 | 22 | 1.7 | 5.2 | 0.00 | 0.00 | 0.00 | 86 | 1010.7 |
| 20260504225118 | 54 | 67 | 1.7 | 6.1 | 0.00 | 0.00 | 0.00 | 86 | 1010.8 |
| 20260504223120 | 54 | 67 | 1.7 | 4.3 | 0.00 | 0.00 | 0.00 | 85 | 1011.0 |
| 20260504221119 | 54 | 67 | 1.7 | 3.5 | 0.00 | 0.00 | 0.00 | 85 | 1011.1 |
| 20260504215121 | 54 | 67 | 0.9 | 3.5 | 0.00 | 0.00 | 0.00 | 85 | 1011.3 |
| 20260504213119 | 55 | 67 | 2.6 | 5.2 | 0.00 | 0.00 | 0.00 | 85 | 1011.3 |
| 20260504211119 | 55 | 45 | 1.7 | 4.3 | 0.00 | 0.00 | 0.00 | 84 | 1011.3 |
| 20260504205121 | 55 | 22 | 1.7 | 4.3 | 0.00 | 0.00 | 0.00 | 84 | 1011.4 |
| 20260504203120 | 55 | 22 | 1.7 | 7.0 | 0.00 | 0.00 | 0.00 | 83 | 1011.3 |
| 20260504201121 | 56 | 45 | 0.9 | 4.3 | 0.00 | 0.00 | 0.00 | 82 | 1011.1 |
| 20260504195121 | 56 | 45 | 0.9 | 3.5 | 0.00 | 0.00 | 0.00 | 82 | 1011.0 |
| 20260504193120 | 57 | 22 | 1.7 | 7.0 | 0.00 | 0.00 | 0.00 | 81 | 1010.8 |
| 20260504191119 | 57 | 0.0 | 1.7 | 0.00 | 0.00 | 0.00 | 80 | 1010.9 | |
| 20260504185120 | 57 | 0.0 | 0.0 | 0.00 | 0.00 | 0.00 | 80 | 1010.6 | |
| 20260504183119 | 57 | 0 | 1.7 | 3.5 | 0.00 | 0.00 | 0.00 | 79 | 1010.6 |
| 20260504181121 | 58 | 0.0 | 2.6 | 0.00 | 0.00 | 0.00 | 78 | 1010.5 | |
| 20260504175119 | 58 | 0.0 | 0.0 | 0.00 | 0.00 | 0.00 | 78 | 1010.6 | |
| 20260504173120 | 58 | 67 | 0.9 | 2.6 | 0.00 | 0.00 | 0.00 | 77 | 1010.6 |
| 20260504171120 | 59 | 67 | 0.9 | 2.6 | 0.00 | 0.00 | 0.00 | 77 | 1010.6 |
| 20260504151116 | 62 | 292 | 4.3 | 8.7 | 0.00 | 0.00 | 0.00 | 72 | 1010.4 |
| 20260504141117 | 63 | 292 | 7.8 | 13.0 | 0.00 | 0.00 | 0.00 | 72 | 1010.6 |
| 20260504081116 | 55 | 0.0 | 0.9 | 0.00 | 0.00 | 0.00 | 90 | 1011.2 | |
| 20260504045117 | 45 | 0.0 | 0.0 | 0.00 | 0.02 | 0.00 | 88 | 1010.0 | |
| 20260504043117 | 45 | 0.0 | 0.0 | 0.00 | 0.02 | 0.00 | 88 | 1010.2 | |
| 20260504041117 | 46 | 0.0 | 0.0 | 0.00 | 0.02 | 0.00 | 88 | 1010.1 | |
| 20260504035117 | 46 | 0.0 | 0.0 | 0.00 | 0.03 | 0.00 | 87 | 1010.1 | |
| 20260504033117 | 46 | 0.0 | 0.0 | 0.00 | 0.03 | 0.00 | 88 | 1010.1 | |
| 20260504031117 | 46 | 0.0 | 0.0 | 0.00 | 0.03 | 0.00 | 88 | 1010.1 | |
| 20260504025117 | 46 | 0.0 | 0.0 | 0.00 | 0.03 | 0.00 | 87 | 1010.3 | |
| 20260504023117 | 46 | 0.0 | 0.0 | 0.00 | 0.04 | 0.00 | 87 | 1010.1 | |
| 20260504021117 | 46 | 0.0 | 0.0 | 0.00 | 0.04 | 0.00 | 87 | 1010.4 | |
| 20260504015117 | 46 | 0.0 | 0.0 | 0.00 | 0.04 | 0.00 | 87 | 1010.3 | |
| 20260504013117 | 46 | 0.0 | 0.0 | 0.00 | 0.04 | 0.00 | 87 | 1010.5 |